User: anonymous   Login
Location: Unspecified
(0.0000°N, 0.0000°E)
Time: 13:08:27
(UTC+01:00)
Language:

Cosmos 2219 Rocket - Orbit

View from above orbital plane
View from above orbital plane
View from above satellite
View from above satellite

Ground track
Ground track

The orbit data is extracted from the following two-line orbital elements,

1 22220U 92076B   16042.38969147 -.00000164  00000-0 -58138-4 0  9994
2 22220  71.0012  14.4308 0015050 297.3455 225.5790 14.16391266201133
Epoch (UTC): 11 February 2016 09:21:09
Eccentricity: 0.0015050
inclination: 71.0012°
perigee height: 827 km
apogee height: 848 km
right ascension of ascending node: 14.4308°
argument of perigee: 297.3455°
revolutions per day: 14.16391266
mean anomaly at epoch: 225.5790°
orbit number at epoch: 20113

The dashed part of the orbit path shows where the satellite is in the earth's shadow,  

DLR